GW4612 Weather Reports


time (UTC)temp
C
wind
direction
speed
KPH
gust
KPH
rain 1hr
cm
rain 24hr
cm
rain mn
cm
humidity
%
barometer
mb
20260502221148 10 266 0.0 11.3 0.00 0.00 0.00 39 1014.8
20260502220643 10 299 8.0 11.3 0.00 0.00 0.00 40 1014.8
20260502220140 10 6 3.2 9.7 0.00 0.00 0.00 44 1014.7
20260502215637 11 283 6.4 9.7 0.00 0.00 0.00 41 1014.7
20260502215134 11 266 3.2 4.8 0.00 0.00 0.00 38 1014.7
20260502214631 11 337 8.0 11.3 0.00 0.00 0.00 39 1014.5
20260502214127 11 286 0.0 9.7 0.00 0.00 0.00 40 1014.7
20260502213625 11 335 8.0 11.3 0.00 0.00 0.00 37 1014.6
20260502213122 11 298 4.8 6.4 0.00 0.00 0.00 41 1014.6
20260502212621 11 326 3.2 9.7 0.00 0.00 0.00 39 1014.6
20260502212119 11 28 0.0 1.6 0.00 0.00 0.00 37 1014.6
20260502211614 11 303 3.2 3.2 0.00 0.00 0.00 38 1014.7
20260502211111 11 302 4.8 4.8 0.00 0.00 0.00 38 1014.8
20260502210609 11 260 3.2 4.8 0.00 0.00 0.00 40 1014.6
20260502210105 11 307 6.4 9.7 0.00 0.00 0.00 37 1014.9
20260502205602 11 259 9.7 14.5 0.00 0.00 0.00 38 1014.6
20260502205059 11 305 3.2 6.4 0.00 0.00 0.00 37 1014.6
20260502204555 11 220 3.2 6.4 0.00 0.00 0.00 39 1014.7
20260502204053 11 211 3.2 9.7 0.00 0.00 0.00 41 1014.7
20260502203550 11 233 8.0 11.3 0.00 0.00 0.00 39 1014.9
20260502203048 11 226 4.8 6.4 0.00 0.00 0.00 42 1014.5
20260502202543 11 281 4.8 6.4 0.00 0.00 0.00 38 1014.7
20260502202042 11 306 3.2 4.8 0.00 0.00 0.00 40 1014.7
20260502201537 11 250 8.0 14.5 0.00 0.00 0.00 42 1014.8
20260502201034 11 254 4.8 22.5 0.00 0.00 0.00 40 1015.0
20260502200530 11 228 6.4 11.3 0.00 0.00 0.00 39 1014.9
20260502200028 11 249 3.2 12.9 0.00 0.00 0.00 39 1015.0
20260502195525 11 326 6.4 17.7 0.00 0.00 0.00 40 1015.1
20260502195021 11 305 6.4 6.4 0.00 0.00 0.00 40 1014.9
20260502194518 11 236 6.4 9.7 0.00 0.00 0.00 37 1015.0
20260502194014 11 252 3.2 11.3 0.00 0.00 0.00 37 1015.1
20260502193512 12 275 8.0 12.9 0.00 0.00 0.00 42 1015.0
20260502193008 12 318 3.2 6.4 0.00 0.00 0.00 42 1015.2
20260502192504 11 218 3.2 4.8 0.00 0.00 0.00 41 1015.1
20260502192001 11 185 4.8 6.4 0.00 0.00 0.00 38 1015.3
20260502191459 11 271 3.2 11.3 0.00 0.00 0.00 37 1015.4
20260502190956 11 307 14.5 20.9 0.00 0.00 0.00 38 1015.3
20260502190453 12 250 6.4 16.1 0.00 0.00 0.00 34 1015.4
20260502185949 12 158 3.2 4.8 0.00 0.00 0.00 36 1015.3
20260502185445 11 265 3.2 9.7 0.00 0.00 0.00 41 1015.6
20260502184942 11 217 1.6 6.4 0.00 0.00 0.00 37 1015.5
20260502184437 11 195 0.0 3.2 0.00 0.00 0.00 43 1015.7
20260502183934 11 302 1.6 3.2 0.00 0.00 0.00 44 1015.6
20260502183430 11 82 6.4 9.7 0.00 0.00 0.00 41 1015.8
20260502182926 11 269 4.8 9.7 0.00 0.00 0.00 43 1016.0
20260502182421 11 184 9.7 12.9 0.00 0.00 0.00 39 1015.9
20260502181918 11 307 16.1 24.1 0.00 0.00 0.00 38 1015.7
20260502181417 10 252 1.6 4.8 0.00 0.00 0.00 49 1015.8
20260502180914 10 322 4.8 9.7 0.00 0.00 0.00 45 1016.1
20260502180411 10 259 9.7 14.5 0.00 0.00 0.00 43 1016.3
20260502170330 10 283 1.6 4.8 0.00 0.00 0.00 42 1016.0
20260502164318 10 290 4.8 14.5 0.00 0.00 0.00 45 1016.5
20260502163813 10 293 4.8 12.9 0.00 0.00 0.00 42 1016.4
20260502163310 10 308 6.4 12.9 0.00 0.00 0.00 42 1016.3
20260502162808 10 286 3.2 16.1 0.00 0.00 0.00 43 1016.5
20260502162305 10 332 6.4 14.5 0.00 0.00 0.00 45 1016.6
20260502161800 10 242 3.2 11.3 0.00 0.00 0.00 47 1016.5
20260502161257 10 285 6.4 9.7 0.00 0.00 0.00 45 1016.5
20260502160755 11 280 4.8 16.1 0.00 0.00 0.00 43 1016.5
20260502160254 10 261 8.0 11.3 0.00 0.00 0.00 41 1016.6
20260502152223 11 117 1.6 11.3 0.00 0.00 0.00 46 1016.5
20260502151721 10 236 0.0 6.4 0.00 0.00 0.00 50 1016.8
20260502151218 11 313 8.0 22.5 0.00 0.00 0.00 43 1016.5
20260502150715 11 296 3.2 6.4 0.00 0.00 0.00 43 1016.6
20260502150211 10 235 1.6 4.8 0.00 0.00 0.00 50 1016.6
20260502130600 8 329 3.2 11.3 0.00 0.00 0.00 60 1016.6
20260502123543 8 236 4.8 11.3 0.00 0.00 0.00 60 1016.8
20260502123039 7 268 6.4 12.9 0.00 0.00 0.00 63 1016.7
20260502122536 7 327 0.0 3.2 0.00 0.00 0.00 64 1016.6
20260502122034 7 280 1.6 3.2 0.00 0.00 0.00 67 1016.5
20260502121531 6 276 1.6 4.8 0.00 0.00 0.00 68 1016.6
20260502121028 6 255 1.6 1.6 0.00 0.00 0.00 67 1016.5
20260502120524 6 264 4.8 6.4 0.00 0.00 0.00 68 1016.7
20260502115519 6 218 4.8 6.4 0.00 0.00 0.00 67 1016.9
20260502115015 6 319 8.0 11.3 0.00 0.00 0.00 71 1016.8
20260502114512 6 89 3.2 4.8 0.00 0.00 0.00 77 1016.7
20260502114009 5 242 0.0 1.6 0.00 0.00 0.00 77 1016.8
20260502113506 5 242 0.0 1.6 0.00 0.00 0.00 79 1016.8
20260502113005 5 313 1.6 1.6 0.00 0.00 0.00 77 1016.8
20260502112502 4 312 3.2 3.2 0.00 0.00 0.00 79 1016.8
20260502111959 4 310 3.2 4.8 0.00 0.00 0.00 80 1016.9
20260502111456 4 321 1.6 3.2 0.00 0.00 0.00 80 1017.0
20260502110954 4 321 1.6 3.2 0.00 0.00 0.00 82 1016.9
20260502110451 3 320 0.0 0.0 0.00 0.00 0.00 80 1016.9
20260502105948 3 320 0.0 0.0 0.00 0.00 0.00 81 1016.8
20260502105446 3 320 0.0 0.0 0.00 0.00 0.00 83 1016.8
20260502104944 3 321 0.0 1.6 0.00 0.00 0.00 80 1016.9
20260502104440 3 321 0.0 1.6 0.00 0.00 0.00 79 1016.7
20260502103938 4 309 0.0 0.0 0.00 0.00 0.00 79 1016.9
20260502103436 4 308 3.2 4.8 0.00 0.00 0.00 79 1016.9
20260502102932 3 334 1.6 1.6 0.00 0.00 0.00 79 1017.0
20260502102429 3 307 1.6 1.6 0.00 0.00 0.00 81 1016.9
20260502101926 3 309 0.0 3.2 0.00 0.00 0.00 80 1017.2
20260502101425 4 21 0.0 1.6 0.00 0.00 0.00 78 1017.2
20260502100922 4 21 0.0 1.6 0.00 0.00 0.00 78 1017.3
20260502100422 4 19 1.6 3.2 0.00 0.00 0.00 79 1017.1
20260502091355 4 207 0.0 3.2 0.00 0.00 0.00 78 1016.9
20260502090853 4 202 0.0 1.6 0.00 0.00 0.00 78 1017.0
20260502090349 4 42 0.0 3.2 0.00 0.00 0.00 77 1016.8
20260502071244 5 249 1.6 1.6 0.00 0.00 0.00 76 1016.7
20260502070743 5 250 1.6 1.6 0.00 0.00 0.00 75 1016.8
20260502070240 5 252 1.6 4.8 0.00 0.00 0.00 76 1016.7
20260502065739 5 315 1.6 4.8 0.00 0.00 0.00 74 1016.5
20260502065236 6 281 0.0 0.0 0.00 0.00 0.00 73 1016.7
20260502064734 6 287 3.2 4.8 0.00 0.00 0.00 71 1016.7
20260502064232 6 223 1.6 9.7 0.00 0.00 0.00 70 1016.8
20260502063729 6 235 0.0 1.6 0.00 0.00 0.00 74 1016.6
20260502063227 6 248 1.6 4.8 0.00 0.00 0.00 73 1016.7
20260502062724 6 255 3.2 6.4 0.00 0.00 0.00 72 1016.8
20260502062221 6 268 1.6 4.8 0.00 0.00 0.00 73 1016.7
20260502061720 6 238 3.2 9.7 0.00 0.00 0.00 72 1016.7
20260502061218 6 277 3.2 4.8 0.00 0.00 0.00 72 1016.9
20260502060718 6 270 1.6 4.8 0.00 0.00 0.00 71 1016.9
20260502060214 6 241 6.4 6.4 0.00 0.00 0.00 70 1016.8
20260502055712 7 233 3.2 4.8 0.00 0.00 0.00 71 1016.9
20260502055210 7 305 3.2 6.4 0.00 0.00 0.00 72 1016.9
20260502054709 7 265 1.6 6.4 0.00 0.00 0.00 72 1016.8
20260502054206 7 244 3.2 12.9 0.00 0.00 0.00 69 1016.8
20260502053703 7 234 8.0 14.5 0.00 0.00 0.00 71 1016.8
20260502053200 7 307 6.4 11.3 0.00 0.00 0.00 71 1016.9
20260502052658 7 306 9.7 12.9 0.00 0.00 0.00 71 1016.7
20260502052156 8 244 6.4 6.4 0.00 0.00 0.00 70 1016.7
20260502051654 8 294 4.8 12.9 0.00 0.00 0.00 70 1016.6
20260502051152 8 328 4.8 9.7 0.00 0.00 0.00 70 1016.7
20260502050648 8 301 6.4 9.7 0.00 0.00 0.00 71 1016.7
20260502050145 8 294 3.2 4.8 0.00 0.00 0.00 71 1016.5
20260502045641 8 254 1.6 3.2 0.00 0.00 0.00 70 1016.7
20260502045139 8 305 3.2 6.4 0.00 0.00 0.00 70 1016.5
20260502044635 8 259 1.6 1.6 0.00 0.00 0.00 72 1016.4
20260502044131 8 296 3.2 4.8 0.00 0.00 0.00 71 1016.5
20260502043630 8 339 6.4 9.7 0.00 0.00 0.00 70 1016.3
20260502043127 8 312 6.4 9.7 0.00 0.00 0.00 71 1016.5
20260502042626 8 327 6.4 9.7 0.00 0.00 0.00 70 1016.4
20260502042123 8 255 3.2 9.7 0.00 0.00 0.00 69 1016.5
20260502041621 8 256 1.6 9.7 0.00 0.00 0.00 70 1016.5
20260502041118 8 221 6.4 9.7 0.00 0.00 0.00 73 1016.3
20260502040615 8 290 3.2 4.8 0.00 0.00 0.00 72 1016.0
20260502040112 8 245 1.6 3.2 0.00 0.00 0.00 74 1016.3
20260502035608 8 296 3.2 4.8 0.00 0.00 0.00 73 1016.1
20260502035105 8 250 1.6 4.8 0.00 0.00 0.00 72 1016.1
20260502034603 9 288 3.2 6.4 0.00 0.00 0.00 72 1016.1
20260502034101 8 251 6.4 11.3 0.00 0.00 0.00 72 1015.8
20260502033559 8 311 8.0 9.7 0.00 0.00 0.00 71 1015.8
20260502033056 8 264 3.2 4.8 0.00 0.00 0.00 71 1015.8
20260502032552 8 329 1.6 3.2 0.00 0.00 0.00 69 1015.8
20260502032049 9 330 0.0 3.2 0.00 0.00 0.00 69 1015.8
20260502031547 9 122 0.0 0.0 0.00 0.00 0.00 69 1015.9
20260502031044 9 84 3.2 4.8 0.00 0.00 0.00 69 1015.6
20260502030543 9 205 0.0 6.4 0.00 0.00 0.00 68 1015.7
20260502030040 9 154 1.6 3.2 0.00 0.00 0.00 68 1015.6
20260502025537 9 295 3.2 3.2 0.00 0.00 0.00 69 1015.8
20260502025036 9 257 6.4 17.7 0.00 0.00 0.00 69 1015.6
20260502024533 9 122 0.0 6.4 0.00 0.00 0.00 69 1015.6
20260502024031 9 274 1.6 4.8 0.00 0.00 0.00 71 1015.7
20260502023528 9 273 1.6 3.2 0.00 0.00 0.00 71 1015.8
20260502023025 9 259 0.0 1.6 0.00 0.00 0.00 70 1015.6
20260502022522 9 310 0.0 6.4 0.00 0.00 0.00 69 1015.7
20260502022020 9 272 6.4 9.7 0.00 0.00 0.00 68 1015.7
20260502021517 9 244 1.6 6.4 0.00 0.00 0.00 68 1015.5
20260502021014 9 262 6.4 11.3 0.00 0.00 0.00 68 1015.8
20260502020512 9 317 4.8 9.7 0.00 0.00 0.00 68 1015.5
20260502020008 9 233 1.6 9.7 0.00 0.00 0.00 69 1015.5
20260502015506 9 265 3.2 3.2 0.00 0.00 0.00 68 1015.6
20260502015002 9 295 3.2 4.8 0.00 0.00 0.00 66 1015.5
20260502014459 10 285 1.6 1.6 0.00 0.00 0.00 67 1015.6
20260502013956 10 289 3.2 11.3 0.00 0.00 0.00 66 1015.6
20260502013451 10 247 1.6 9.7 0.00 0.00 0.00 67 1015.6
20260502012948 10 261 8.0 11.3 0.00 0.00 0.00 67 1015.5
20260502012446 10 239 3.2 9.7 0.00 0.00 0.00 67 1015.2
20260502011943 10 284 6.4 11.3 0.00 0.00 0.00 68 1015.0
20260502011439 10 294 6.4 20.9 0.00 0.00 0.00 66 1015.6
20260502010936 11 264 6.4 12.9 0.00 0.00 0.00 65 1015.1
20260502010433 11 257 4.8 9.7 0.00 0.00 0.00 66 1014.9
20260502005929 11 298 9.7 12.9 0.00 0.00 0.00 66 1014.9
20260502005427 11 272 14.5 25.7 0.00 0.00 0.00 67 1014.7
20260502004925 11 242 11.3 20.9 0.00 0.00 0.00 67 1014.5
20260502004420 11 140 3.2 4.8 0.00 0.00 0.00 67 1014.3
20260502003918 11 240 8.0 11.3 0.00 0.00 0.00 67 1014.0
20260502003415 11 234 0.0 1.6 0.00 0.00 0.00 65 1013.7
20260502002911 11 247 0.0 1.6 0.00 0.00 0.00 64 1013.7
20260502002409 11 311 8.0 12.9 0.00 0.00 0.00 63 1013.7
20260502001906 12 306 6.4 11.3 0.00 0.00 0.00 61 1013.3
20260502001404 12 229 9.7 12.9 0.00 0.00 0.00 61 1013.4
20260502000901 12 165 1.6 3.2 0.00 0.00 0.00 60 1013.3
20260502000402 12 320 4.8 11.3 0.00 0.00 0.00 59 1013.0
20260501235850 12 244 1.6 6.4 0.00 0.00 0.00 59 1012.9
20260501235345 12 222 1.6 9.7 0.00 0.00 0.00 56 1013.0
20260501234841 12 198 4.8 9.7 0.00 0.00 0.00 55 1012.8
20260501234338 13 257 4.8 20.9 0.00 0.00 0.00 54 1012.8
20260501233837 13 209 0.0 4.8 0.00 0.00 0.00 52 1012.6
20260501233334 13 92 3.2 12.9 0.00 0.00 0.00 50 1012.6
20260501232829 13 101 0.0 20.9 0.00 0.00 0.00 47 1012.7
20260501232327 14 304 4.8 12.9 0.00 0.00 0.00 47 1012.5
20260501231824 14 327 6.4 11.3 0.00 0.00 0.00 45 1012.4
20260501231322 15 296 17.7 20.9 0.00 0.00 0.00 43 1012.3
20260501230820 15 238 4.8 6.4 0.00 0.00 0.00 42 1012.1
20260501230319 15 267 9.7 16.1 0.00 0.00 0.00 39 1012.2
20260501225816 15 304 4.8 9.7 0.00 0.00 0.00 39 1012.0
20260501225314 15 310 0.0 9.7 0.00 0.00 0.00 38 1011.8
20260501224809 16 284 3.2 14.5 0.00 0.00 0.00 38 1011.8
20260501224307 16 265 6.4 9.7 0.00 0.00 0.00 38 1011.9
20260501223803 16 235 1.6 6.4 0.00 0.00 0.00 39 1011.9
20260501223259 16 302 8.0 14.5 0.00 0.00 0.00 33 1011.9
20260501222755 17 301 12.9 16.1 0.00 0.00 0.00 33 1011.6
20260501222253 17 196 3.2 9.7 0.00 0.00 0.00 36 1011.6
20260501221749 17 167 6.4 20.9 0.00 0.00 0.00 37 1011.6
20260501221247 17 245 6.4 9.7 0.00 0.00 0.00 32 1011.4